Tracking 27112 objects as of 26-Mar-2023
HD Live streaming from Space Station
objects crossing your sky now

FLOCK 4V 14

Track FLOCK 4V 14 now!
10-day predictions
FLOCK 4V 14 is classified as:


NORAD ID: 46286
Int'l Code: 2020-061Q
Perigee: 501.9 km
Apogee: 505.1 km
Inclination: 97.4 °
Period: 94.5 minutes
Semi major axis: 6874 km
RCS: Unknown
Launch date: September 3, 2020
Source: United States (US)
Launch site: FRENCH GUIANA (FRGUI)
Your satellite tracking list
Your tracking list is empty




NASA's NSSDC Master Catalog

Two Line Element Set (TLE):
1 46286U 20061Q   23085.17450293  .00044822  00000-0  18907-2 0  9991
2 46286  97.4106 155.0664 0002333  20.5328 339.6002 15.23151920141214
Source of the keplerian elements: AFSPC